Regional Weather Roundup
Issued by NWS State College, PA

Home | Current Version | Previous Version | Graphics & Text | Print | Product List | Glossary Off
Versions: 1 2 3 4 5 6 7 8 9 10 11 12 13 14 15 16 17 18 19 20 21 22 23 24 25 26 27 28 29 30 31 32 33 34 35 36 37 38 39 40 41 42 43 44 45 46 47 48 49 50

000
ASUS41 KCTP 291503
RWRCTP

REGIONAL WEATHER ROUNDUP
NATIONAL WEATHER SERVICE STATE COLLEGE PA
1100 AM EDT FRI AUG 29 2014

Note: "fair" indicates few or no clouds below 12,000 feet with no
significant weather and/or obstructions to visibility.

* = STATION THAT DOES NOT REPORT PRECIPITATION /E.G. RAIN...SNOW...ETC/
    THUNDER OR FOG.

PAZ002>004-007>009-013>016-020>023-029>032-291600-
WESTERN PENNSYLVANIA

CITY           SKY/WX    TMP DP  RH WIND       PRES   REMARKS
ERIE           MOSUNNY   69  49  48 E9        30.18F
MEADVILLE      SUNNY     65  48  54 E9        30.19F
FRANKLIN*      SUNNY     64  48  55 E8        30.21F
NEW CASTLE     FAIR      67  57  70 CALM      30.20S
BEAVER COUNTY  SUNNY     64  54  68 SE6       30.19R
BUTLER*        SUNNY     64  54  68 SE5       30.22R
PITTSBURGH INT PTSUNNY   66  54  65 SE5       30.18S
PITTSBURGH     SUNNY     67  53  61 SE5       30.18R
INDIANA*       SUNNY     66  50  55 SE8       30.24S
LATROBE        PTSUNNY   68  55  64 VRB5      30.20S
WASHINGTON CO* SUNNY     66  55  68 NE5       30.19S
$$

PAZ004>006-010>012-017>019-024>028-033>037-041-042-045-046-049>053-291600-
CENTRAL PENNSYLVANIA

CITY           SKY/WX    TMP DP  RH WIND       PRES   REMARKS
BRADFORD       MOSUNNY   63  47  55 SE7       30.23F
DUBOIS         NOT AVBL
CLEARFIELD     MOSUNNY   64  53  67 NE7       30.23F
JOHNSTOWN      MOSUNNY   63  49  60 S9        30.23R
ALTOONA        SUNNY     66  51  58 SE7       30.24S
STATE COLLEGE  NOT AVBL
WILLIAMSPORT   MOSUNNY   66  51  58 CALM      30.22S
SELINSGROVE    MOSUNNY   69  55  60 CALM      30.23S
FT INDIANTOWN  MOSUNNY   70  51  52 VRB1      30.22S
CAPITAL CITY   SUNNY     69  51  52 VRB3      30.23R
HARRISBURG     PTSUNNY   71  52  50 CALM      30.22R
YORK           NOT AVBL
$$

PAZ038>040-043-044-047-048-054-055-060>062-067>071-291600-
EASTERN PENNSYLVANIA

CITY           SKY/WX    TMP DP  RH WIND       PRES   REMARKS
SCRANTON       SUNNY     67  52  58 VRB3      30.23S
MOUNT POCONO   SUNNY     66  49  54 NE10      30.24R
ALLENTOWN      SUNNY     70  52  52 CALM      30.21S
QUAKERTOWN*    SUNNY     72  50  46 MISG      30.21S
READING        MOSUNNY   71  52  50 NW5       30.21R
LANCASTER      MOSUNNY   69  51  52 CALM      30.22S
COATESVILLE    MOSUNNY   68  55  64 N5        30.23R
POTTSTOWN      MOSUNNY   71  51  49 NE5       30.22S
BLUE BELL      SUNNY     73  50  43 NE3       30.20S
DOYLESTOWN     SUNNY     72  48  42 N6        30.20S
WILLOW GROVE   NOT AVBL
NORTH PHILA    SUNNY     74  49  41 E7        30.21S
PHILADELPHIA   PTSUNNY   74  50  42 VRB6      30.20R
$$


USA.gov is the U.S. government's official web portal to all federal, state and local government web resources and services.